Location: Haliburton Scout Reserve
(45.0900°N, 78.3200°W)
Time: 04:06:43
(UTC-04:00)

PCSat - Pass Details

Date: 01 June 2022
Orbit: 784 x 795 km, 67.1° (Epoch: 24 June)

Event Time Altitude Azimuth Distance (km) Brightness Sun altitude
Rises 02:06:03 0° 323° (NW) 3,304 13.3 -21.7°
Reaches altitude 10° 02:08:33 10° 317° (NW) 2,370 12.4 -21.6°
Maximum altitude 02:13:43 46° 246° (WSW) 1,061 9.9 -21.3°
Enters shadow 02:14:26 43° 223° (SW) 1,100 9.9 -21.3°
